Terminal Aerodrome Forecast
Issued by NWS Blacksburg, VA

Home | Current Version | Previous Version | Text Only | Print | Product List | Glossary On
Versions: 1 2 3 4 5 6 7 8 9 10 11 12 13 14 15 16 17 18 19 20 21 22 23 24 25 26
000
FTUS41 KRNK 020530
TAFDAN
TAF
KDAN 020530Z 0206/0306 24005KT P6SM SCT120
     FM021300 25006KT P6SM SCT100
     FM022000 24009KT P6SM SCT060
     FM030300 26003KT P6SM BKN100
      AMD NOT SKED=

USA.gov is the U.S. government's official web portal to all federal, state and local government web resources and services.